TimeCDT,TemperatureF,Dew PointF,Humidity,Sea Level PressureIn,VisibilityMPH,Wind Direction,Wind SpeedMPH,Gust SpeedMPH,PrecipitationIn,Events,Conditions,WindDirDegrees,DateUTC
12:56 AM,57.9,54.0,87,29.81,10.0,Calm,Calm,-,N/A,,Clear,0,2011-10-18 05:56:00
1:15 AM,-9999,-9999,N/A,-9999,-9999.0,North,-9999.0,-,N/A,Hail,Hail,0,2011-10-18 06:15:00
1:56 AM,55.9,53.1,90,29.80,10.0,Calm,Calm,-,N/A,,Clear,0,2011-10-18 06:56:00
2:56 AM,54.0,52.0,93,29.78,10.0,Calm,Calm,-,N/A,,Clear,0,2011-10-18 07:56:00
3:56 AM,55.0,52.0,89,29.78,10.0,Calm,Calm,-,N/A,,Clear,0,2011-10-18 08:56:00
4:56 AM,54.0,51.1,90,29.78,10.0,Calm,Calm,-,N/A,,Clear,0,2011-10-18 09:56:00
5:56 AM,54.0,51.1,90,29.77,10.0,Calm,Calm,-,N/A,,Clear,0,2011-10-18 10:56:00
6:56 AM,57.0,55.0,93,29.76,10.0,Calm,Calm,-,N/A,,Clear,0,2011-10-18 11:56:00
7:56 AM,61.0,57.0,87,29.76,10.0,Calm,Calm,-,N/A,,Clear,0,2011-10-18 12:56:00
9:56 AM,75.9,66.0,71,29.76,10.0,ESE,3.5,-,N/A,,Clear,120,2011-10-18 14:56:00
10:56 AM,77.0,66.9,71,29.75,10.0,SSE,6.9,-,N/A,,Partly Cloudy,150,2011-10-18 15:56:00
11:41 AM,79.0,66.9,66,29.74,10.0,Calm,Calm,-,N/A,,Mostly Cloudy,0,2011-10-18 16:41:00
11:56 AM,81.0,66.9,62,29.71,10.0,Variable,4.6,-,N/A,,Mostly Cloudy,0,2011-10-18 16:56:00
12:07 PM,82.0,66.9,60,29.72,10.0,South,8.1,-,N/A,,Partly Cloudy,180,2011-10-18 17:07:00
12:56 PM,80.1,66.9,64,29.66,10.0,South,6.9,-,N/A,,Scattered Clouds,190,2011-10-18 17:56:00
1:10 PM,80.1,66.9,64,29.67,10.0,SE,5.8,-,N/A,,Mostly Cloudy,130,2011-10-18 18:10:00
1:39 PM,82.9,66.0,56,29.64,10.0,Variable,6.9,-,N/A,,Scattered Clouds,0,2011-10-18 18:39:00
1:56 PM,82.0,66.0,58,29.62,10.0,South,9.2,-,N/A,,Clear,170,2011-10-18 18:56:00
2:56 PM,82.0,64.9,56,29.59,10.0,SE,4.6,-,N/A,,Clear,130,2011-10-18 19:56:00
3:56 PM,82.0,64.0,54,29.57,10.0,South,5.8,-,N/A,,Clear,170,2011-10-18 20:56:00
4:56 PM,81.0,64.9,58,29.57,10.0,South,4.6,-,N/A,,Clear,180,2011-10-18 21:56:00
5:56 PM,78.1,66.0,66,29.57,10.0,SSE,3.5,-,N/A,,Clear,160,2011-10-18 22:56:00
6:56 PM,75.0,66.0,73,29.57,10.0,SSE,3.5,-,N/A,,Clear,150,2011-10-18 23:56:00
7:56 PM,73.0,66.0,79,29.56,10.0,SSE,3.5,-,N/A,,Clear,160,2011-10-19 00:56:00
8:56 PM,71.1,66.9,87,29.56,10.0,West,9.2,-,N/A,,Scattered Clouds,270,2011-10-19 01:56:00
9:08 PM,71.1,66.9,87,29.57,10.0,West,6.9,-,0.01,Rain,Light Rain,280,2011-10-19 02:08:00
9:22 PM,70.0,68.0,93,29.57,2.5,Variable,3.5,-,0.12,Rain,Rain,0,2011-10-19 02:22:00
9:36 PM,70.0,68.0,93,29.57,2.5,West,6.9,-,0.26,Rain,Light Rain,280,2011-10-19 02:36:00
9:43 PM,71.1,68.0,90,29.57,10.0,West,6.9,-,0.26,Rain,Light Rain,280,2011-10-19 02:43:00
9:56 PM,70.0,66.9,90,29.56,10.0,NW,6.9,-,0.26,,Mostly Cloudy,320,2011-10-19 02:56:00
10:11 PM,69.1,66.9,93,29.58,10.0,Variable,3.5,-,N/A,,Scattered Clouds,0,2011-10-19 03:11:00
10:45 PM,69.1,64.9,87,29.58,10.0,Variable,6.9,-,N/A,,Mostly Cloudy,0,2011-10-19 03:45:00
10:56 PM,66.0,63.0,90,29.58,10.0,WNW,12.7,24.2,N/A,,Overcast,300,2011-10-19 03:56:00
11:32 PM,59.0,57.0,93,29.61,5.0,NW,11.5,23.0,0.00,,Overcast,310,2011-10-19 04:32:00
11:56 PM,57.0,55.0,93,29.61,8.0,WNW,12.7,18.4,0.00,,Overcast,290,2011-10-19 04:56:00